Time,TemperatureF,DewpointF,PressureIn,WindDirection,WindDirectionDegrees,WindSpeedMPH,WindSpeedGustMPH,Humidity,HourlyPrecipIn,Conditions,Clouds,dailyrainin,SolarRadiationWatts/m^2,SoftwareType,DateUTC
2013-06-17 00:01:00,67.5,65.0,30.19,SW,231,0.0,0.0,91,0.00,,,0.00,0,TxWx,2013-06-17 04:01:00,
2013-06-17 00:02:00,67.5,65.0,30.19,SW,231,0.0,0.0,91,0.00,,,0.00,0,TxWx,2013-06-17 04:02:00,
2013-06-17 00:07:00,67.4,65.0,30.19,SW,231,0.0,0.0,92,0.00,,,0.00,0,TxWx,2013-06-17 04:07:00,
2013-06-17 00:13:00,67.2,64.8,30.19,WSW,256,0.0,0.0,92,0.00,,,0.00,0,TxWx,2013-06-17 04:13:00,
2013-06-17 00:18:00,67.2,65.0,30.20,WSW,256,0.0,0.0,92,0.00,,,0.00,0,TxWx,2013-06-17 04:18:00,
2013-06-17 00:24:00,67.2,65.2,30.19,NW,316,0.0,0.0,93,0.00,,,0.00,0,TxWx,2013-06-17 04:24:00,
2013-06-17 00:29:00,67.0,64.9,30.19,NW,316,0.0,0.0,93,0.00,,,0.00,0,TxWx,2013-06-17 04:29:00,
2013-06-17 00:34:00,66.7,64.9,30.19,NNW,330,0.0,0.0,93,0.00,,,0.00,0,TxWx,2013-06-17 04:34:00,
2013-06-17 00:39:00,66.7,65.0,30.19,NNW,330,0.0,0.0,94,0.00,,,0.00,0,TxWx,2013-06-17 04:39:00,
2013-06-17 00:44:00,66.6,65.0,30.18,NNW,330,0.0,0.0,94,0.00,,,0.00,0,TxWx,2013-06-17 04:44:00,
2013-06-17 00:49:00,66.7,64.7,30.19,WNW,284,0.0,0.0,93,0.00,,,0.00,0,TxWx,2013-06-17 04:49:00,
2013-06-17 00:54:00,66.8,64.8,30.19,WNW,285,0.0,0.0,93,0.00,,,0.00,0,TxWx,2013-06-17 04:54:00,
2013-06-17 00:59:00,66.9,64.9,30.19,WNW,284,0.0,0.0,93,0.00,,,0.00,0,TxWx,2013-06-17 04:59:00,
2013-06-17 01:03:00,66.9,65.1,30.19,WNW,284,0.0,0.0,93,0.00,,,0.00,0,TxWx,2013-06-17 05:03:00,
2013-06-17 01:08:00,66.8,65.1,30.19,WNW,285,0.0,0.0,94,0.00,,,0.00,0,TxWx,2013-06-17 05:08:00,
2013-06-17 01:13:00,66.8,65.2,30.19,WNW,284,0.0,0.0,94,0.00,,,0.00,0,TxWx,2013-06-17 05:13:00,
2013-06-17 01:18:00,66.7,64.7,30.19,WNW,284,0.0,0.0,93,0.00,,,0.00,0,TxWx,2013-06-17 05:18:00,
2013-06-17 01:23:00,66.8,65.0,30.19,WNW,285,0.0,0.0,93,0.00,,,0.00,0,TxWx,2013-06-17 05:23:00,
2013-06-17 01:28:00,66.9,65.1,30.19,WNW,286,0.0,0.0,93,0.00,,,0.00,0,TxWx,2013-06-17 05:28:00,
2013-06-17 01:33:00,66.9,64.7,30.19,WNW,286,0.0,0.0,92,0.00,,,0.00,0,TxWx,2013-06-17 05:33:00,
2013-06-17 01:38:00,67.1,65.0,30.19,North,8,0.0,0.0,93,0.00,,,0.00,0,TxWx,2013-06-17 05:38:00,
2013-06-17 01:43:00,67.1,65.0,30.19,NW,317,0.0,0.0,92,0.00,,,0.00,0,TxWx,2013-06-17 05:43:00,
2013-06-17 01:48:00,67.1,64.8,30.19,NW,317,0.0,0.0,92,0.00,,,0.00,0,TxWx,2013-06-17 05:48:00,
2013-06-17 01:53:00,67.1,65.0,30.19,NW,317,0.0,0.0,92,0.00,,,0.00,0,TxWx,2013-06-17 05:53:00,
2013-06-17 01:58:00,67.0,65.1,30.19,NNW,339,0.0,0.0,93,0.00,,,0.00,0,TxWx,2013-06-17 05:58:00,
2013-06-17 02:03:00,66.9,65.0,30.18,NNW,339,0.0,0.0,93,0.00,,,0.00,0,TxWx,2013-06-17 06:03:00,
2013-06-17 02:09:00,66.9,64.9,30.18,NNW,339,0.0,0.0,93,0.00,,,0.00,0,TxWx,2013-06-17 06:09:00,
2013-06-17 02:14:00,67.0,65.0,30.18,NNW,339,0.0,0.0,93,0.00,,,0.00,0,TxWx,2013-06-17 06:14:00,
2013-06-17 02:19:00,67.0,65.4,30.18,NNW,339,0.0,0.0,94,0.00,,,0.00,0,TxWx,2013-06-17 06:19:00,
2013-06-17 02:24:00,66.9,65.6,30.18,NNW,339,0.0,0.0,95,0.00,,,0.00,0,TxWx,2013-06-17 06:24:00,
2013-06-17 02:28:00,66.8,65.5,30.18,NNW,339,0.0,0.0,95,0.00,,,0.00,0,TxWx,2013-06-17 06:28:00,
2013-06-17 02:33:00,66.7,65.5,30.18,NNW,339,0.0,0.0,96,0.00,,,0.00,0,TxWx,2013-06-17 06:33:00,
2013-06-17 02:39:00,66.0,64.8,30.18,North,8,1.1,2.0,96,0.00,,,0.00,0,TxWx,2013-06-17 06:39:00,
2013-06-17 02:44:00,65.6,64.7,30.18,North,8,0.0,0.0,97,0.00,,,0.00,0,TxWx,2013-06-17 06:44:00,
2013-06-17 02:48:00,65.6,64.9,30.18,North,8,0.0,0.0,97,0.00,,,0.00,0,TxWx,2013-06-17 06:48:00,
2013-06-17 02:53:00,65.6,64.9,30.18,North,7,0.0,0.0,97,0.00,,,0.00,0,TxWx,2013-06-17 06:53:00,
2013-06-17 02:58:00,65.7,65.2,30.18,North,353,0.0,0.0,98,0.00,,,0.00,0,TxWx,2013-06-17 06:58:00,
2013-06-17 03:03:00,65.7,65.4,30.18,North,353,0.0,0.0,99,0.00,,,0.00,0,TxWx,2013-06-17 07:03:00,
2013-06-17 03:08:00,65.6,65.4,30.18,North,353,0.0,0.0,99,0.00,,,0.00,0,TxWx,2013-06-17 07:08:00,
2013-06-17 03:13:00,65.6,65.5,30.18,North,353,0.0,0.0,99,0.00,,,0.00,0,TxWx,2013-06-17 07:13:00,
2013-06-17 03:18:00,65.5,65.5,30.18,North,353,0.0,0.0,100,0.00,,,0.00,0,TxWx,2013-06-17 07:18:00,
2013-06-17 03:23:00,65.4,65.4,30.18,NNW,341,0.0,0.0,100,0.00,,,0.00,0,TxWx,2013-06-17 07:23:00,
2013-06-17 03:28:00,65.3,65.3,30.18,NNW,341,0.0,0.0,100,0.00,,,0.00,0,TxWx,2013-06-17 07:28:00,
2013-06-17 03:33:00,65.3,65.3,30.18,NNW,341,0.0,0.0,100,0.00,,,0.00,0,TxWx,2013-06-17 07:33:00,
2013-06-17 03:38:00,65.1,65.1,30.17,NNW,341,0.0,0.0,100,0.00,,,0.00,0,TxWx,2013-06-17 07:38:00,
2013-06-17 03:43:00,65.0,65.0,30.17,NNW,341,0.0,0.0,100,0.00,,,0.00,0,TxWx,2013-06-17 07:43:00,
2013-06-17 03:48:00,65.0,65.0,30.17,NNW,341,0.0,0.0,100,0.00,,,0.00,0,TxWx,2013-06-17 07:48:00,
2013-06-17 03:53:00,64.9,64.9,30.17,North,354,0.0,0.0,100,0.00,,,0.00,0,TxWx,2013-06-17 07:53:00,
2013-06-17 03:58:00,64.4,64.4,30.17,North,0,0.0,0.0,100,0.00,,,0.00,0,TxWx,2013-06-17 07:58:00,
2013-06-17 04:03:00,64.3,64.3,30.17,North,0,0.0,0.0,100,0.00,,,0.00,0,TxWx,2013-06-17 08:03:00,
2013-06-17 04:08:00,64.0,64.0,30.17,North,0,0.0,0.0,100,0.00,,,0.00,0,TxWx,2013-06-17 08:08:00,
2013-06-17 04:13:00,63.9,63.9,30.17,North,1,0.0,0.0,100,0.00,,,0.00,0,TxWx,2013-06-17 08:13:00,
2013-06-17 04:18:00,64.1,64.1,30.17,North,0,0.0,0.0,100,0.00,,,0.00,0,TxWx,2013-06-17 08:18:00,
2013-06-17 04:23:00,64.1,64.1,30.17,North,7,1.1,1.1,100,0.00,,,0.00,0,TxWx,2013-06-17 08:23:00,
2013-06-17 04:28:00,64.0,64.0,30.17,NNE,29,1.1,1.1,100,0.00,,,0.00,0,TxWx,2013-06-17 08:28:00,
2013-06-17 04:33:00,64.1,64.1,30.17,NNE,21,1.1,1.1,100,0.00,,,0.00,0,TxWx,2013-06-17 08:33:00,
2013-06-17 04:38:00,64.1,64.1,30.17,North,9,1.1,1.1,100,0.00,,,0.00,0,TxWx,2013-06-17 08:38:00,
2013-06-17 04:43:00,64.1,64.1,30.17,NNE,12,1.1,1.1,100,0.00,,,0.00,0,TxWx,2013-06-17 08:43:00,
2013-06-17 04:48:00,64.0,64.0,30.17,NNE,14,0.0,0.0,100,0.00,,,0.00,0,TxWx,2013-06-17 08:48:00,
2013-06-17 04:53:00,64.0,64.0,30.17,North,8,0.0,0.0,100,0.00,,,0.00,0,TxWx,2013-06-17 08:53:00,
2013-06-17 04:58:00,63.9,63.9,30.17,North,8,0.0,0.0,100,0.00,,,0.00,0,TxWx,2013-06-17 08:58:00,
2013-06-17 05:03:00,63.9,63.9,30.17,North,8,0.0,0.0,100,0.00,,,0.00,0,TxWx,2013-06-17 09:03:00,
2013-06-17 05:08:00,63.8,63.8,30.17,North,8,0.0,0.0,100,0.00,,,0.00,0,TxWx,2013-06-17 09:08:00,
2013-06-17 05:13:00,63.8,63.8,30.16,North,8,0.0,0.0,100,0.00,,,0.00,0,TxWx,2013-06-17 09:13:00,
2013-06-17 05:18:00,63.7,63.7,30.16,North,8,0.0,0.0,100,0.00,,,0.00,0,TxWx,2013-06-17 09:18:00,
2013-06-17 05:23:00,63.5,63.5,30.16,North,8,0.0,0.0,100,0.00,,,0.00,0,TxWx,2013-06-17 09:23:00,
2013-06-17 05:28:00,63.4,63.4,30.16,North,8,1.1,1.1,100,0.00,,,0.01,0,TxWx,2013-06-17 09:28:00,
2013-06-17 05:33:00,63.3,63.3,30.16,North,8,0.0,0.0,100,0.00,,,0.01,0,TxWx,2013-06-17 09:33:00,
2013-06-17 05:38:00,63.3,63.3,30.16,NNE,12,0.0,0.0,100,0.00,,,0.01,0,TxWx,2013-06-17 09:38:00,
2013-06-17 05:43:00,63.2,63.2,30.16,WSW,239,1.1,1.1,100,0.00,,,0.01,0,TxWx,2013-06-17 09:43:00,
2013-06-17 05:48:00,63.1,63.1,30.16,WSW,240,1.1,1.1,100,0.00,,,0.01,0,TxWx,2013-06-17 09:48:00,
2013-06-17 05:53:00,63.1,63.1,30.17,WSW,240,1.1,1.1,100,0.00,,,0.01,0,TxWx,2013-06-17 09:53:00,
2013-06-17 05:58:00,63.1,63.1,30.17,WSW,241,0.0,0.0,100,0.00,,,0.01,0,TxWx,2013-06-17 09:58:00,
2013-06-17 06:03:00,63.1,63.1,30.16,WSW,241,0.0,0.0,100,0.00,,,0.01,0,TxWx,2013-06-17 10:03:00,
2013-06-17 06:08:00,63.1,63.1,30.16,WSW,241,0.0,0.0,100,0.00,,,0.01,0,TxWx,2013-06-17 10:08:00,
2013-06-17 06:13:00,63.2,63.2,30.16,WSW,241,0.0,0.0,100,0.00,,,0.01,0,TxWx,2013-06-17 10:13:00,
2013-06-17 06:18:00,63.3,63.3,30.16,WSW,243,0.0,0.0,100,0.00,,,0.01,1,TxWx,2013-06-17 10:18:00,
2013-06-17 06:23:00,63.1,63.1,30.16,NNE,30,0.0,1.0,100,0.00,,,0.01,2,TxWx,2013-06-17 10:23:00,
2013-06-17 06:28:00,63.0,63.0,30.16,NNE,26,1.1,1.1,100,0.00,,,0.01,3,TxWx,2013-06-17 10:28:00,
2013-06-17 06:33:00,62.8,62.8,30.16,NNE,14,1.1,1.1,100,0.00,,,0.01,5,TxWx,2013-06-17 10:33:00,
2013-06-17 06:38:00,62.7,62.7,30.16,NNE,14,0.0,0.0,100,0.00,,,0.01,7,TxWx,2013-06-17 10:38:00,
2013-06-17 06:43:00,62.6,62.6,30.16,NNE,14,0.0,0.0,100,0.00,,,0.01,11,TxWx,2013-06-17 10:43:00,
2013-06-17 06:48:00,62.7,62.7,30.16,NNE,14,0.0,0.0,100,0.00,,,0.01,13,TxWx,2013-06-17 10:48:00,
2013-06-17 06:53:00,62.7,62.7,30.16,NNE,14,0.0,0.0,100,0.00,,,0.01,17,TxWx,2013-06-17 10:53:00,
2013-06-17 06:58:00,62.7,62.7,30.16,NNE,14,0.0,0.0,100,0.00,,,0.01,19,TxWx,2013-06-17 10:58:00,
2013-06-17 07:03:00,62.7,62.7,30.16,NNE,14,0.0,0.0,100,0.00,,,0.01,24,TxWx,2013-06-17 11:03:00,
2013-06-17 07:08:00,62.8,62.8,30.16,NNE,14,0.0,0.0,100,0.00,,,0.01,25,TxWx,2013-06-17 11:08:00,
2013-06-17 07:13:00,63.0,63.0,30.16,NNE,14,0.0,0.0,100,0.00,,,0.01,23,TxWx,2013-06-17 11:13:00,
2013-06-17 07:18:00,63.2,63.2,30.16,NNE,14,0.0,0.0,100,0.00,,,0.01,24,TxWx,2013-06-17 11:18:00,
2013-06-17 07:23:00,63.5,63.5,30.16,NNW,339,0.0,0.0,100,0.00,,,0.01,24,TxWx,2013-06-17 11:23:00,
2013-06-17 07:28:00,63.4,63.4,30.16,NNW,334,0.0,0.0,100,0.00,,,0.01,24,TxWx,2013-06-17 11:28:00,
2013-06-17 07:33:00,63.5,63.5,30.17,NNW,332,0.0,0.0,100,0.00,,,0.01,25,TxWx,2013-06-17 11:33:00,
2013-06-17 07:38:00,63.8,63.8,30.17,NNW,332,0.0,0.0,100,0.00,,,0.01,29,TxWx,2013-06-17 11:38:00,
2013-06-17 07:43:00,63.7,63.7,30.17,NNW,332,0.0,0.0,100,0.00,,,0.01,34,TxWx,2013-06-17 11:43:00,
2013-06-17 07:48:00,63.9,63.9,30.17,NNW,331,0.0,0.0,100,0.00,,,0.01,39,TxWx,2013-06-17 11:48:00,
2013-06-17 07:53:00,64.0,64.0,30.17,NNW,331,0.0,0.0,100,0.00,,,0.01,42,TxWx,2013-06-17 11:53:00,
2013-06-17 07:58:00,64.1,64.1,30.17,ESE,108,0.0,1.0,100,0.00,,,0.01,47,TxWx,2013-06-17 11:58:00,
2013-06-17 08:03:00,64.3,64.3,30.17,East,92,0.0,0.0,100,0.00,,,0.01,46,TxWx,2013-06-17 12:03:00,
2013-06-17 08:08:00,64.5,64.5,30.17,East,92,0.0,0.0,100,0.00,,,0.01,41,TxWx,2013-06-17 12:08:00,
2013-06-17 08:13:00,64.5,64.5,30.17,East,92,0.0,0.0,100,0.00,,,0.01,50,TxWx,2013-06-17 12:13:00,
2013-06-17 08:18:00,64.8,64.8,30.17,East,92,0.0,0.0,100,0.00,,,0.01,65,TxWx,2013-06-17 12:18:00,
2013-06-17 08:23:00,64.9,64.9,30.17,East,88,0.0,0.0,100,0.00,,,0.01,57,TxWx,2013-06-17 12:23:00,
2013-06-17 08:28:00,65.1,65.1,30.17,East,88,0.0,0.0,100,0.00,,,0.01,51,TxWx,2013-06-17 12:28:00,
2013-06-17 08:33:00,65.2,65.2,30.17,East,88,0.0,0.0,100,0.00,,,0.01,58,TxWx,2013-06-17 12:33:00,
2013-06-17 08:38:00,65.2,65.2,30.17,ENE,59,0.0,0.0,100,0.00,,,0.01,56,TxWx,2013-06-17 12:38:00,
2013-06-17 08:43:00,65.3,65.3,30.17,ENE,60,1.1,1.1,100,0.00,,,0.01,48,TxWx,2013-06-17 12:43:00,
2013-06-17 08:48:00,65.3,65.3,30.16,ENE,60,1.1,1.1,100,0.00,,,0.01,46,TxWx,2013-06-17 12:48:00,
2013-06-17 08:53:00,65.4,65.4,30.16,ENE,60,0.0,0.0,100,0.00,,,0.01,73,TxWx,2013-06-17 12:53:00,
2013-06-17 08:58:00,65.5,65.5,30.16,ENE,60,0.0,0.0,100,0.00,,,0.01,110,TxWx,2013-06-17 12:58:00,
2013-06-17 09:03:00,66.0,66.0,30.17,NNW,348,0.0,0.0,100,0.00,,,0.01,71,TxWx,2013-06-17 13:03:00,
2013-06-17 09:08:00,66.2,66.2,30.17,ENE,68,0.0,1.0,100,0.00,,,0.01,117,TxWx,2013-06-17 13:08:00,
2013-06-17 09:13:00,66.6,66.6,30.17,SSW,193,0.0,1.0,100,0.00,,,0.01,155,TxWx,2013-06-17 13:13:00,
2013-06-17 09:18:00,67.0,67.0,30.17,WSW,242,1.1,1.1,100,0.00,,,0.01,110,TxWx,2013-06-17 13:18:00,
2013-06-17 09:23:00,67.5,67.5,30.17,SW,236,0.0,0.0,100,0.00,,,0.01,117,TxWx,2013-06-17 13:23:00,
2013-06-17 09:28:00,67.9,67.9,30.17,West,279,0.0,0.0,100,0.00,,,0.01,117,TxWx,2013-06-17 13:28:00,
2013-06-17 09:33:00,68.4,68.4,30.17,West,280,0.0,0.0,100,0.00,,,0.01,111,TxWx,2013-06-17 13:33:00,
2013-06-17 09:38:00,68.4,68.4,30.17,SE,145,1.1,1.1,100,0.00,,,0.01,128,TxWx,2013-06-17 13:38:00,
2013-06-17 09:43:00,68.6,68.6,30.17,SE,145,0.0,0.0,100,0.00,,,0.01,121,TxWx,2013-06-17 13:43:00,
2013-06-17 09:48:00,68.5,68.4,30.17,South,172,1.1,1.1,99,0.00,,,0.01,97,TxWx,2013-06-17 13:48:00,
2013-06-17 09:53:00,68.3,67.8,30.17,SW,230,1.1,1.1,98,0.00,,,0.01,80,TxWx,2013-06-17 13:53:00,
2013-06-17 09:58:00,68.1,67.8,30.17,WSW,240,0.0,0.0,99,0.00,,,0.01,93,TxWx,2013-06-17 13:58:00,
2013-06-17 10:03:00,68.0,67.5,30.17,WSW,249,1.1,1.1,98,0.00,,,0.01,80,TxWx,2013-06-17 14:03:00,
2013-06-17 10:08:00,67.9,67.7,30.17,South,182,0.0,0.0,99,0.00,,,0.01,54,TxWx,2013-06-17 14:08:00,
2013-06-17 10:13:00,67.7,67.4,30.17,WSW,241,1.1,1.1,99,0.00,,,0.01,62,TxWx,2013-06-17 14:13:00,
2013-06-17 10:18:00,67.5,67.5,30.17,WSW,241,1.1,1.1,100,0.00,,,0.01,106,TxWx,2013-06-17 14:18:00,
2013-06-17 10:24:00,67.6,67.6,30.17,WSW,249,0.0,1.0,100,0.00,,,0.01,136,TxWx,2013-06-17 14:24:00,
2013-06-17 10:29:00,67.8,67.8,30.17,South,176,2.4,2.4,100,0.00,,,0.01,156,TxWx,2013-06-17 14:29:00,
2013-06-17 10:34:00,68.1,68.1,30.17,WSW,248,0.0,1.0,100,0.00,,,0.01,161,TxWx,2013-06-17 14:34:00,
2013-06-17 10:39:00,68.7,68.7,30.17,East,89,1.1,2.0,99,0.00,,,0.01,240,TxWx,2013-06-17 14:39:00,
2013-06-17 10:44:00,69.2,68.6,30.17,West,263,0.0,1.0,97,0.00,,,0.01,273,TxWx,2013-06-17 14:44:00,
2013-06-17 10:49:00,69.6,68.2,30.17,East,97,1.1,1.1,95,0.00,,,0.01,126,TxWx,2013-06-17 14:49:00,
2013-06-17 10:54:00,69.6,68.1,30.17,NNE,17,0.0,0.0,94,0.00,,,0.01,92,TxWx,2013-06-17 14:54:00,
2013-06-17 10:59:00,69.1,67.5,30.17,SW,220,0.0,1.0,94,0.00,,,0.01,110,TxWx,2013-06-17 14:59:00,
2013-06-17 11:04:00,69.1,67.6,30.17,SW,222,0.0,1.0,94,0.00,,,0.01,82,TxWx,2013-06-17 15:04:00,
2013-06-17 11:09:00,69.0,67.7,30.17,East,96,1.1,1.1,95,0.00,,,0.01,77,TxWx,2013-06-17 15:09:00,
2013-06-17 11:14:00,68.6,67.3,30.17,SW,229,1.1,2.0,95,0.00,,,0.01,109,TxWx,2013-06-17 15:14:00,
2013-06-17 11:19:00,68.3,67.1,30.17,WSW,249,1.1,1.1,96,0.00,,,0.01,103,TxWx,2013-06-17 15:19:00,
2013-06-17 11:24:00,68.0,67.1,30.17,SE,130,1.1,2.0,97,0.00,,,0.01,110,TxWx,2013-06-17 15:24:00,
2013-06-17 11:29:00,67.5,67.1,30.17,WSW,238,2.4,2.4,98,0.00,,,0.01,107,TxWx,2013-06-17 15:29:00,
2013-06-17 11:34:00,67.0,67.0,30.18,West,264,1.1,1.1,100,0.00,,,0.02,134,TxWx,2013-06-17 15:34:00,
2013-06-17 11:39:00,66.9,66.9,30.18,WSW,249,1.1,1.1,100,0.00,,,0.02,172,TxWx,2013-06-17 15:39:00,
2013-06-17 11:44:00,66.7,66.7,30.18,West,260,0.0,1.0,100,0.00,,,0.02,218,TxWx,2013-06-17 15:44:00,
2013-06-17 11:49:00,67.1,67.1,30.18,NW,308,0.0,0.0,100,0.00,,,0.02,208,TxWx,2013-06-17 15:49:00,
2013-06-17 11:54:00,67.6,67.6,30.18,NW,310,0.0,0.0,100,0.00,,,0.02,201,TxWx,2013-06-17 15:54:00,
2013-06-17 11:59:00,67.7,67.7,30.18,SE,140,2.4,2.4,100,0.00,,,0.02,285,TxWx,2013-06-17 15:59:00,
2013-06-17 12:04:00,68.1,68.1,30.18,SE,126,0.0,1.0,100,0.00,,,0.02,151,TxWx,2013-06-17 16:04:00,
2013-06-17 12:09:00,68.2,68.2,30.18,SSW,202,0.0,0.0,100,0.00,,,0.02,164,TxWx,2013-06-17 16:09:00,
2013-06-17 12:14:00,68.3,68.3,30.18,SSE,160,0.0,0.0,100,0.00,,,0.02,108,TxWx,2013-06-17 16:14:00,
2013-06-17 12:19:00,68.1,68.1,30.18,SSE,165,0.0,0.0,100,0.00,,,0.02,109,TxWx,2013-06-17 16:19:00,
2013-06-17 12:24:00,67.8,67.8,30.18,SW,220,0.0,1.0,100,0.00,,,0.02,188,TxWx,2013-06-17 16:24:00,
2013-06-17 12:29:00,68.2,68.2,30.18,WNW,300,0.0,0.0,100,0.00,,,0.02,280,TxWx,2013-06-17 16:29:00,
2013-06-17 12:34:00,69.0,69.0,30.18,NW,318,0.0,1.0,100,0.00,,,0.02,169,TxWx,2013-06-17 16:34:00,
2013-06-17 12:39:00,69.4,69.4,30.18,ESE,119,1.1,1.1,100,0.00,,,0.02,183,TxWx,2013-06-17 16:39:00,
2013-06-17 12:44:00,69.6,69.6,30.18,ENE,64,0.0,0.0,100,0.00,,,0.02,163,TxWx,2013-06-17 16:44:00,
2013-06-17 12:49:00,69.3,68.8,30.18,West,267,0.0,0.0,98,0.00,,,0.02,154,TxWx,2013-06-17 16:49:00,
2013-06-17 12:54:00,69.2,68.6,30.18,West,270,0.0,0.0,98,0.00,,,0.02,225,TxWx,2013-06-17 16:54:00,
2013-06-17 12:59:00,69.5,69.3,30.18,ESE,118,0.0,1.0,99,0.00,,,0.02,479,TxWx,2013-06-17 16:59:00,
2013-06-17 13:04:00,70.5,70.5,30.18,NW,326,0.0,1.0,99,0.00,,,0.02,202,TxWx,2013-06-17 17:04:00,
2013-06-17 13:09:00,70.9,69.5,30.18,WNW,284,0.0,0.0,95,0.00,,,0.02,207,TxWx,2013-06-17 17:09:00,
2013-06-17 13:15:00,71.6,70.3,30.18,West,280,0.0,0.0,95,0.00,,,0.02,438,TxWx,2013-06-17 17:15:00,
2013-06-17 13:20:00,72.4,70.4,30.18,NE,51,0.0,1.0,93,0.00,,,0.02,955,TxWx,2013-06-17 17:20:00,
2013-06-17 13:25:00,72.6,68.9,30.18,West,281,1.1,2.0,88,0.00,,,0.02,355,TxWx,2013-06-17 17:25:00,
2013-06-17 13:30:00,72.6,68.4,30.18,WNW,297,1.1,1.1,86,0.00,,,0.02,332,TxWx,2013-06-17 17:30:00,
2013-06-17 13:35:00,72.5,68.4,30.18,WNW,296,0.0,1.0,86,0.00,,,0.02,259,TxWx,2013-06-17 17:35:00,
2013-06-17 13:40:00,72.7,68.1,30.18,SE,138,1.1,1.1,85,0.00,,,0.02,233,TxWx,2013-06-17 17:40:00,
2013-06-17 13:45:00,73.1,69.0,30.18,North,358,0.0,0.0,87,0.00,,,0.02,273,TxWx,2013-06-17 17:45:00,
2013-06-17 13:50:00,73.2,69.1,30.18,NNW,339,0.0,0.0,87,0.00,,,0.02,83,TxWx,2013-06-17 17:50:00,
2013-06-17 13:55:00,72.0,67.2,30.18,WSW,251,0.0,1.0,84,0.00,,,0.02,47,TxWx,2013-06-17 17:55:00,
2013-06-17 14:00:00,70.1,66.7,30.18,South,186,3.5,3.5,89,0.00,,,0.06,50,TxWx,2013-06-17 18:00:00,
2013-06-17 14:05:00,67.6,66.7,30.18,SSW,205,3.5,3.5,96,0.00,,,0.10,113,TxWx,2013-06-17 18:05:00,
2013-06-17 14:10:00,67.0,67.0,30.17,ESE,118,1.1,2.0,100,0.00,,,0.10,157,TxWx,2013-06-17 18:10:00,
2013-06-17 14:15:00,66.7,66.7,30.17,SW,227,1.1,1.1,100,0.00,,,0.10,146,TxWx,2013-06-17 18:15:00,
2013-06-17 14:20:00,66.4,66.4,30.17,SSW,207,1.1,2.0,100,0.00,,,0.11,196,TxWx,2013-06-17 18:20:00,
2013-06-17 14:25:00,66.6,66.6,30.17,SW,214,0.0,1.0,100,0.00,,,0.12,192,TxWx,2013-06-17 18:25:00,
2013-06-17 14:30:00,66.5,66.5,30.17,ENE,77,1.1,2.0,100,0.00,,,0.12,193,TxWx,2013-06-17 18:30:00,
2013-06-17 14:35:00,66.7,66.7,30.17,East,93,0.0,0.0,100,0.00,,,0.13,168,TxWx,2013-06-17 18:35:00,
2013-06-17 14:40:00,66.8,66.8,30.16,East,95,0.0,0.0,100,0.00,,,0.13,196,TxWx,2013-06-17 18:40:00,
2013-06-17 14:45:00,67.0,67.0,30.16,East,97,0.0,0.0,100,0.00,,,0.13,257,TxWx,2013-06-17 18:45:00,
2013-06-17 14:50:00,67.3,67.3,30.15,ESE,102,0.0,0.0,100,0.00,,,0.13,244,TxWx,2013-06-17 18:50:00,
2013-06-17 14:55:00,67.9,67.9,30.15,East,98,0.0,0.0,100,0.00,,,0.13,536,TxWx,2013-06-17 18:55:00,
2013-06-17 15:00:00,68.3,68.3,30.15,East,86,0.0,0.0,100,0.00,,,0.13,394,TxWx,2013-06-17 19:00:00,
2013-06-17 15:05:00,69.0,69.0,30.14,North,8,0.0,0.0,100,0.00,,,0.13,186,TxWx,2013-06-17 19:05:00,
2013-06-17 15:10:00,68.9,68.9,30.14,WNW,287,1.1,1.1,100,0.00,,,0.13,144,TxWx,2013-06-17 19:10:00,
2013-06-17 15:15:00,68.3,68.3,30.14,WNW,287,1.1,1.1,100,0.00,,,0.13,179,TxWx,2013-06-17 19:15:00,
2013-06-17 15:20:00,68.3,68.3,30.14,WNW,287,0.0,1.0,100,0.00,,,0.13,227,TxWx,2013-06-17 19:20:00,
2013-06-17 15:25:00,68.4,68.4,30.14,WNW,285,0.0,0.0,100,0.00,,,0.13,339,TxWx,2013-06-17 19:25:00,
2013-06-17 15:30:00,68.8,68.8,30.14,North,1,0.0,0.0,100,0.00,,,0.13,393,TxWx,2013-06-17 19:30:00,
2013-06-17 15:35:00,69.3,69.3,30.13,North,8,1.1,1.1,100,0.00,,,0.13,495,TxWx,2013-06-17 19:35:00,
2013-06-17 15:40:00,71.2,71.2,30.13,East,90,1.1,1.1,100,0.00,,,0.13,526,TxWx,2013-06-17 19:40:00,
2013-06-17 15:45:00,72.1,72.1,30.13,NNE,33,1.1,1.1,100,0.00,,,0.13,527,TxWx,2013-06-17 19:45:00,
2013-06-17 15:50:00,72.5,70.3,30.12,WNW,291,2.4,2.4,92,0.00,,,0.13,515,TxWx,2013-06-17 19:50:00,
2013-06-17 15:55:00,72.6,70.2,30.12,NNW,330,0.0,1.0,92,0.00,,,0.13,503,TxWx,2013-06-17 19:55:00,
2013-06-17 16:00:00,73.4,71.1,30.12,WNW,285,1.1,1.1,92,0.00,,,0.13,505,TxWx,2013-06-17 20:00:00,
2013-06-17 16:05:00,73.0,69.8,30.12,NNW,330,1.1,1.1,89,0.00,,,0.13,481,TxWx,2013-06-17 20:05:00,
2013-06-17 16:10:00,73.2,68.8,30.12,NW,312,0.0,0.0,86,0.00,,,0.13,457,TxWx,2013-06-17 20:10:00,
2013-06-17 16:15:00,73.9,69.4,30.12,North,5,1.1,1.1,85,0.00,,,0.13,445,TxWx,2013-06-17 20:15:00,
2013-06-17 16:20:00,74.2,70.3,30.11,ESE,123,2.4,2.4,87,0.00,,,0.13,465,TxWx,2013-06-17 20:20:00,
2013-06-17 16:25:00,74.7,70.3,30.11,WNW,290,0.0,1.0,86,0.00,,,0.13,431,TxWx,2013-06-17 20:25:00,
2013-06-17 16:30:00,75.3,69.9,30.11,NE,46,0.0,1.0,83,0.00,,,0.13,376,TxWx,2013-06-17 20:30:00,
2013-06-17 16:35:00,74.7,67.3,30.11,SSE,165,0.0,1.0,78,0.00,,,0.13,201,TxWx,2013-06-17 20:35:00,
2013-06-17 16:40:00,74.0,68.7,30.11,SE,126,1.1,1.1,83,0.00,,,0.13,208,TxWx,2013-06-17 20:40:00,
2013-06-17 16:45:00,73.4,69.8,30.11,East,85,1.1,1.1,88,0.00,,,0.13,526,TxWx,2013-06-17 20:45:00,
2013-06-17 16:50:00,74.1,68.3,30.11,West,281,1.1,1.1,82,0.00,,,0.13,423,TxWx,2013-06-17 20:50:00,
2013-06-17 16:55:00,74.9,69.1,30.11,NNE,21,1.1,2.0,82,0.00,,,0.13,371,TxWx,2013-06-17 20:55:00,
2013-06-17 17:00:00,75.0,69.8,30.11,West,275,0.0,0.0,83,0.00,,,0.13,251,TxWx,2013-06-17 21:00:00,
2013-06-17 17:05:00,75.2,68.8,30.11,NNW,342,1.1,2.0,80,0.00,,,0.13,410,TxWx,2013-06-17 21:05:00,
2013-06-17 17:10:00,76.0,69.4,30.11,South,175,1.1,1.1,80,0.00,,,0.13,468,TxWx,2013-06-17 21:10:00,
2013-06-17 17:15:00,76.6,68.6,30.11,West,272,0.0,0.0,76,0.00,,,0.13,332,TxWx,2013-06-17 21:15:00,
2013-06-17 17:20:00,77.0,67.5,30.11,West,274,2.4,2.4,72,0.00,,,0.13,479,TxWx,2013-06-17 21:20:00,
2013-06-17 17:25:00,76.6,66.6,30.11,WNW,294,1.1,1.1,71,0.00,,,0.13,477,TxWx,2013-06-17 21:25:00,
2013-06-17 17:30:00,77.1,66.7,30.11,West,271,0.0,1.0,70,0.00,,,0.13,437,TxWx,2013-06-17 21:30:00,
2013-06-17 17:35:00,76.4,65.8,30.11,WSW,257,1.1,2.0,69,0.00,,,0.13,131,TxWx,2013-06-17 21:35:00,
2013-06-17 17:40:00,74.2,65.2,30.11,SSW,204,2.4,2.4,73,0.00,,,0.13,120,TxWx,2013-06-17 21:40:00,
2013-06-17 17:48:00,74.0,67.2,30.11,South,186,0.0,1.0,79,0.00,,,0.13,273,TxWx,2013-06-17 21:48:00,
2013-06-17 17:53:00,73.5,65.7,30.11,SW,223,2.4,2.4,76,0.00,,,0.13,88,TxWx,2013-06-17 21:53:00,
2013-06-17 17:58:00,73.0,66.0,30.11,SW,218,1.1,2.0,78,0.00,,,0.13,335,TxWx,2013-06-17 21:58:00,
2013-06-17 18:03:00,74.0,68.0,30.11,SW,232,1.1,1.1,81,0.00,,,0.13,313,TxWx,2013-06-17 22:03:00,
2013-06-17 18:08:00,75.2,68.8,30.11,East,86,1.1,1.1,80,0.00,,,0.13,291,TxWx,2013-06-17 22:08:00,
2013-06-17 18:13:00,76.3,67.6,30.11,East,80,0.0,0.0,74,0.00,,,0.13,305,TxWx,2013-06-17 22:13:00,
2013-06-17 18:18:00,75.4,66.0,30.10,SW,222,1.1,1.1,72,0.00,,,0.13,56,TxWx,2013-06-17 22:18:00,
2013-06-17 18:23:00,74.1,64.5,30.11,SW,231,2.4,3.0,72,0.00,,,0.13,146,TxWx,2013-06-17 22:23:00,
2013-06-17 18:28:00,73.1,65.5,30.11,WSW,258,1.1,1.1,77,0.00,,,0.13,247,TxWx,2013-06-17 22:28:00,
2013-06-17 18:33:00,73.6,65.6,30.11,SE,140,0.0,1.0,76,0.00,,,0.13,259,TxWx,2013-06-17 22:33:00,
2013-06-17 18:38:00,74.3,65.4,30.11,ESE,116,1.1,1.1,73,0.00,,,0.13,58,TxWx,2013-06-17 22:38:00,
2013-06-17 18:43:00,73.8,65.5,30.10,WSW,240,2.4,2.4,75,0.00,,,0.13,191,TxWx,2013-06-17 22:43:00,
2013-06-17 18:48:00,73.8,65.7,30.10,SE,132,1.1,1.1,76,0.00,,,0.13,201,TxWx,2013-06-17 22:48:00,
2013-06-17 18:53:00,74.1,65.8,30.10,South,170,1.1,2.0,75,0.00,,,0.13,150,TxWx,2013-06-17 22:53:00,
2013-06-17 18:58:00,74.5,65.7,30.10,West,266,0.0,0.0,74,0.00,,,0.13,189,TxWx,2013-06-17 22:58:00,
2013-06-17 19:03:00,74.7,66.6,30.11,West,266,0.0,0.0,75,0.00,,,0.13,180,TxWx,2013-06-17 23:03:00,
2013-06-17 19:08:00,75.5,67.3,30.11,NNW,335,0.0,0.0,75,0.00,,,0.13,166,TxWx,2013-06-17 23:08:00,
2013-06-17 19:13:00,75.5,66.5,30.11,NE,45,0.0,1.0,73,0.00,,,0.13,66,TxWx,2013-06-17 23:13:00,
2013-06-17 19:18:00,75.0,66.9,30.11,WSW,239,1.1,1.1,75,0.00,,,0.13,37,TxWx,2013-06-17 23:18:00,
2013-06-17 19:23:00,73.6,66.8,30.11,ESE,118,1.1,1.1,79,0.00,,,0.13,33,TxWx,2013-06-17 23:23:00,
2013-06-17 19:28:00,73.0,66.6,30.11,East,84,1.1,1.1,80,0.00,,,0.13,33,TxWx,2013-06-17 23:28:00,
2013-06-17 19:33:00,72.0,66.1,30.11,East,84,0.0,1.0,81,0.00,,,0.13,36,TxWx,2013-06-17 23:33:00,
2013-06-17 19:38:00,71.6,66.7,30.11,East,84,0.0,0.0,84,0.00,,,0.13,36,TxWx,2013-06-17 23:38:00,
2013-06-17 19:43:00,71.2,66.7,30.11,East,85,0.0,0.0,85,0.00,,,0.13,37,TxWx,2013-06-17 23:43:00,
2013-06-17 19:48:00,71.1,67.2,30.11,East,85,0.0,0.0,87,0.00,,,0.13,35,TxWx,2013-06-17 23:48:00,
2013-06-17 19:53:00,70.5,67.0,30.12,SW,233,0.0,1.0,88,0.00,,,0.13,32,TxWx,2013-06-17 23:53:00,
2013-06-17 19:58:00,70.5,67.3,30.11,SW,233,0.0,0.0,89,0.00,,,0.13,28,TxWx,2013-06-17 23:58:00,
2013-06-17 20:03:00,70.2,67.6,30.11,NNW,335,0.0,0.0,91,0.00,,,0.13,26,TxWx,2013-06-18 00:03:00,
2013-06-17 20:08:00,70.0,67.4,30.11,North,358,0.0,1.0,91,0.00,,,0.13,21,TxWx,2013-06-18 00:08:00,
2013-06-17 20:13:00,69.9,67.5,30.11,North,358,0.0,0.0,92,0.00,,,0.13,15,TxWx,2013-06-18 00:13:00,
2013-06-17 20:18:00,69.4,67.2,30.11,North,356,0.0,0.0,92,0.00,,,0.13,11,TxWx,2013-06-18 00:18:00,
2013-06-17 20:23:00,69.1,67.1,30.11,West,276,0.0,1.0,93,0.00,,,0.13,10,TxWx,2013-06-18 00:23:00,
2013-06-17 20:28:00,68.7,67.1,30.11,West,277,1.1,1.1,94,0.00,,,0.13,8,TxWx,2013-06-18 00:28:00,
2013-06-17 20:33:00,68.5,67.2,30.11,West,276,0.0,0.0,95,0.00,,,0.13,6,TxWx,2013-06-18 00:33:00,
2013-06-17 20:38:00,68.1,66.7,30.11,West,277,0.0,0.0,95,0.00,,,0.13,4,TxWx,2013-06-18 00:38:00,
2013-06-17 20:43:00,67.9,67.0,30.11,West,277,0.0,0.0,97,0.00,,,0.13,5,TxWx,2013-06-18 00:43:00,
2013-06-17 20:48:00,67.7,66.9,30.11,West,277,0.0,0.0,97,0.00,,,0.13,4,TxWx,2013-06-18 00:48:00,
2013-06-17 20:53:00,67.6,67.0,30.11,West,278,0.0,0.0,97,0.00,,,0.13,2,TxWx,2013-06-18 00:53:00,
2013-06-17 20:58:00,67.3,66.5,30.11,West,278,0.0,0.0,97,0.00,,,0.13,0,TxWx,2013-06-18 00:58:00,
2013-06-17 21:03:00,67.0,66.7,30.11,SW,234,1.1,1.1,99,0.00,,,0.13,0,TxWx,2013-06-18 01:03:00,
2013-06-17 21:08:00,66.7,66.1,30.11,SW,224,1.1,1.1,97,0.00,,,0.13,0,TxWx,2013-06-18 01:08:00,
2013-06-17 21:13:00,67.0,66.9,30.11,SW,225,0.0,0.0,99,0.00,,,0.13,0,TxWx,2013-06-18 01:13:00,
2013-06-17 21:18:00,66.9,66.9,30.11,SW,228,0.0,0.0,100,0.00,,,0.13,0,TxWx,2013-06-18 01:18:00,
2013-06-17 21:23:00,66.6,66.4,30.11,SW,226,1.1,1.1,99,0.00,,,0.13,0,TxWx,2013-06-18 01:23:00,
2013-06-17 21:28:00,66.0,65.7,30.11,SW,216,1.1,1.1,98,0.00,,,0.13,0,TxWx,2013-06-18 01:28:00,
2013-06-17 21:33:00,65.7,65.7,30.12,SW,225,1.1,1.1,100,0.00,,,0.14,0,TxWx,2013-06-18 01:33:00,
2013-06-17 21:38:00,65.8,65.8,30.12,SW,225,0.0,0.0,100,0.00,,,0.14,0,TxWx,2013-06-18 01:38:00,
2013-06-17 21:43:00,65.8,65.8,30.12,SW,226,0.0,0.0,100,0.00,,,0.14,0,TxWx,2013-06-18 01:43:00,
2013-06-17 21:48:00,65.3,65.3,30.12,SW,226,0.0,0.0,100,0.00,,,0.15,0,TxWx,2013-06-18 01:48:00,
2013-06-17 21:53:00,64.9,64.9,30.11,SW,226,0.0,0.0,100,0.00,,,0.15,0,TxWx,2013-06-18 01:53:00,
2013-06-17 21:58:00,64.7,64.7,30.11,SW,226,0.0,0.0,100,0.00,,,0.16,0,TxWx,2013-06-18 01:58:00,
2013-06-17 22:03:00,64.5,64.5,30.11,SSW,204,0.0,0.0,100,0.00,,,0.16,0,TxWx,2013-06-18 02:03:00,
2013-06-17 22:08:00,64.2,64.2,30.11,ESE,114,0.0,0.0,100,0.00,,,0.16,0,TxWx,2013-06-18 02:08:00,
2013-06-17 22:13:00,64.1,64.1,30.11,East,97,0.0,0.0,100,0.00,,,0.16,0,TxWx,2013-06-18 02:13:00,
2013-06-17 22:18:00,64.0,64.0,30.11,NNE,22,0.0,1.0,100,0.00,,,0.16,0,TxWx,2013-06-18 02:18:00,
2013-06-17 22:23:00,63.8,63.8,30.12,SSW,208,1.1,1.1,100,0.00,,,0.16,0,TxWx,2013-06-18 02:23:00,
2013-06-17 22:28:00,63.6,63.6,30.12,SSW,207,0.0,0.0,100,0.00,,,0.16,0,TxWx,2013-06-18 02:28:00,
2013-06-17 22:34:00,63.1,63.1,30.12,WSW,252,0.0,1.0,100,0.00,,,0.16,0,TxWx,2013-06-18 02:34:00,
2013-06-17 22:40:00,62.7,62.7,30.12,WSW,253,0.0,0.0,100,0.00,,,0.16,0,TxWx,2013-06-18 02:40:00,
2013-06-17 22:45:00,63.0,63.0,30.12,NNW,333,0.0,0.0,100,0.00,,,0.16,0,TxWx,2013-06-18 02:45:00,
2013-06-17 22:50:00,62.9,62.9,30.12,NNW,333,0.0,0.0,100,0.00,,,0.16,0,TxWx,2013-06-18 02:50:00,
2013-06-17 22:55:00,62.8,62.8,30.12,NNW,333,0.0,0.0,100,0.00,,,0.16,0,TxWx,2013-06-18 02:55:00,
2013-06-17 23:00:00,62.9,62.9,30.12,NNW,333,0.0,0.0,100,0.00,,,0.16,0,TxWx,2013-06-18 03:00:00,
2013-06-17 23:05:00,62.9,62.9,30.12,NNW,333,0.0,0.0,100,0.00,,,0.16,0,TxWx,2013-06-18 03:05:00,
2013-06-17 23:10:00,62.7,62.7,30.12,NNW,331,0.0,0.0,100,0.00,,,0.16,0,TxWx,2013-06-18 03:10:00,
2013-06-17 23:15:00,62.7,62.7,30.11,NNE,23,0.0,0.0,100,0.00,,,0.16,0,TxWx,2013-06-18 03:15:00,
2013-06-17 23:20:00,62.7,62.7,30.11,North,7,1.1,1.1,100,0.00,,,0.16,0,TxWx,2013-06-18 03:20:00,
2013-06-17 23:26:00,62.6,62.6,30.12,WSW,239,0.0,1.0,100,0.00,,,0.16,0,TxWx,2013-06-18 03:26:00,
2013-06-17 23:31:00,62.6,62.6,30.12,WSW,239,1.1,1.1,100,0.00,,,0.16,0,TxWx,2013-06-18 03:31:00,
2013-06-17 23:36:00,62.7,62.7,30.12,WSW,239,0.0,0.0,100,0.00,,,0.16,0,TxWx,2013-06-18 03:36:00,
2013-06-17 23:41:00,62.7,62.7,30.11,WSW,239,0.0,0.0,100,0.00,,,0.16,0,TxWx,2013-06-18 03:41:00,
2013-06-17 23:46:00,62.6,62.6,30.11,WSW,239,0.0,0.0,100,0.00,,,0.16,0,TxWx,2013-06-18 03:46:00,
2013-06-17 23:51:00,62.7,62.7,30.11,WSW,239,0.0,0.0,100,0.00,,,0.16,0,TxWx,2013-06-18 03:51:00,
2013-06-17 23:56:00,62.7,62.7,30.11,WSW,239,0.0,0.0,100,0.00,,,0.16,0,TxWx,2013-06-18 03:56:00,